Location: Unspecified
(0.0000°N, 0.0000°E)
Time: 22:39:51
(UTC+00:00)

Hubble Space Telescope - Pass Details

Date: 30 November 2022
Orbit: 530 x 534 km, 28.5° (Epoch: 01 December)

Event Time Altitude Azimuth Distance (km) Brightness Sun altitude
Rises 18:30:48 0° 272° (W) 2,658 5.7 -9.8°
Reaches altitude 10° 18:33:36 10° 253° (WSW) 1,771 5.0 -10.4°
Maximum altitude 18:36:28 18° 208° (SSW) 1,331 3.5 -11.1°
Drops below altitude 10° 18:39:20 10° 164° (SSE) 1,774 3.5 -11.7°
Sets 18:42:09 0° 145° (SE) 2,665 4.2 -12.4°
